User: anonymous   Login
Location: Dompnac
(44.5644°N, 4.1026°E)
Time: 03:23:55
(UTC+00:00)
Language:

CZ-2D DEB - Orbit

View from above orbital plane
View from above orbital plane
View from above satellite
View from above satellite

Ground track
Ground track

The orbit data is extracted from the following two-line orbital elements,

1 44610U 17060C   21264.58325817  .00000393  00000-0  56835-4 0  9999
2 44610  98.1191  15.4507 0029230  12.3723 347.8200 14.81590734211349
Epoch (UTC): 21 September 2021 13:59:53
Eccentricity: 0.0029230
inclination: 98.1191°
perigee height: 604 km
apogee height: 645 km
right ascension of ascending node: 15.4507°
argument of perigee: 12.3723°
revolutions per day: 14.81590734
mean anomaly at epoch: 347.8200°
orbit number at epoch: 21134

The dashed part of the orbit path shows where the satellite is in the earth's shadow,  

DLR